Location: Bosmont
(49.7318°N, 3.8587°E)
Time: 07:09:11
(UTC+00:00)

Cosmos 1943 Rocket - Visible Passes

Search period start: 24 September 2023 00:00
Search period end: 04 October 2023 00:00
Orbit: 810 x 845 km, 71.0° (Epoch: 23 September)

Date Brightness Start Highest point End Pass type
(mag) Time Alt. Az. Time Alt. Az. Time Alt. Az.
24 Sep 3.8 18:53:24 10° N 18:57:32 20° NE 19:00:23 14° ENE visible
24 Sep 2.2 20:36:33 10° NNW 20:41:53 73° NNE 20:41:53 73° NNE visible
24 Sep 4.5 22:21:21 10° NW 22:23:24 17° WNW 22:23:24 17° WNW visible
25 Sep 3.9 18:34:08 10° N 18:38:04 19° NE 18:41:31 11° ENE visible
25 Sep 2.1 20:17:12 10° NNW 20:22:54 69° ENE 20:23:02 69° ENE visible
25 Sep 4.3 22:01:48 10° NW 22:04:33 20° WNW 22:04:33 20° WNW visible
26 Sep 3.9 18:14:52 10° N 18:18:35 17° NE 18:22:17 10° ENE visible
26 Sep 2.2 19:57:52 10° NNW 20:03:32 62° ENE 20:04:13 57° E visible
26 Sep 4.0 21:42:18 10° NW 21:45:44 24° W 21:45:44 24° W visible
27 Sep 4.0 17:55:36 10° N 17:59:05 16° NNE 18:02:33 10° ENE visible
27 Sep 2.3 19:38:33 10° NNW 19:44:09 56° NE 19:45:25 46° E visible
27 Sep 3.8 21:22:48 10° NW 21:26:57 28° W 21:26:57 28° W visible
28 Sep 2.5 19:19:14 10° NNW 19:24:46 51° NE 19:26:42 36° ESE visible
28 Sep 3.5 21:03:20 10° NW 21:08:13 32° WSW 21:08:13 32° WSW visible
29 Sep 2.6 18:59:54 10° NNW 19:05:22 46° NE 19:08:01 27° ESE visible
29 Sep 3.3 20:43:54 10° NW 20:49:00 36° WSW 20:49:33 35° WSW visible
30 Sep 2.7 18:40:35 10° NNW 18:45:58 41° NE 18:49:24 20° ESE visible
30 Sep 3.2 20:24:27 10° NW 20:29:43 40° WSW 20:30:55 36° SW visible
01 Oct 2.8 18:21:16 10° NNW 18:26:34 38° NE 18:30:51 15° ESE visible
01 Oct 3.0 20:05:03 10° NW 20:10:25 45° WSW 20:12:23 33° SSW visible
02 Oct 3.0 18:01:58 10° NNW 18:07:09 34° NE 18:12:16 10° ESE visible
02 Oct 2.9 19:45:39 10° NW 19:51:08 51° WSW 19:53:56 27° S visible
03 Oct 3.1 17:42:40 10° NNW 17:47:43 32° NE 17:52:44 10° ESE visible
03 Oct 2.7 19:26:15 10° NW 19:31:49 57° WSW 19:35:35 20° S visible
